TimeCST,TemperatureF,Dew PointF,Humidity,Sea Level PressureIn,VisibilityMPH,Wind Direction,Wind SpeedMPH,Gust SpeedMPH,PrecipitationIn,Events,Conditions,WindDirDegrees,DateUTC
12:21 AM,42.8,41.0,93,29.42,5.0,WSW,9.2,-,N/A,,Overcast,250,2012-11-11 06:21:00
12:49 AM,39.2,39.2,100,29.44,10.0,West,16.1,-,N/A,,Overcast,270,2012-11-11 06:49:00
12:53 AM,39.9,37.9,93,29.48,10.0,West,18.4,-,0.01,,Overcast,260,2012-11-11 06:53:00
1:53 AM,34.0,32.0,92,29.53,10.0,West,18.4,-,N/A,,Overcast,260,2012-11-11 07:53:00
2:53 AM,30.9,30.0,96,29.57,10.0,West,16.1,-,N/A,,Overcast,260,2012-11-11 08:53:00
3:53 AM,30.0,28.0,92,29.59,8.0,West,16.1,21.9,N/A,,Overcast,280,2012-11-11 09:53:00
4:53 AM,28.0,25.0,88,29.64,10.0,West,17.3,25.3,N/A,,Overcast,280,2012-11-11 10:53:00
5:18 AM,26.6,24.8,93,29.61,10.0,West,19.6,-,N/A,,Overcast,270,2012-11-11 11:18:00
5:53 AM,26.1,24.1,92,29.70,10.0,West,13.8,-,N/A,,Overcast,260,2012-11-11 11:53:00
6:53 AM,25.0,21.9,88,29.69,10.0,West,15.0,21.9,N/A,,Overcast,280,2012-11-11 12:53:00
7:53 AM,24.8,21.2,86,29.67,10.0,West,16.1,-,N/A,,Overcast,270,2012-11-11 13:53:00
8:37 AM,24.8,19.4,80,29.69,10.0,West,17.3,24.2,N/A,,Overcast,270,2012-11-11 14:37:00
8:53 AM,24.1,19.9,84,29.73,10.0,WNW,13.8,21.9,N/A,,Overcast,290,2012-11-11 14:53:00
9:53 AM,23.0,19.0,85,29.77,10.0,West,15.0,-,N/A,,Overcast,260,2012-11-11 15:53:00
10:53 AM,23.0,19.0,85,29.77,10.0,West,15.0,-,N/A,,Overcast,260,2012-11-11 16:53:00
11:34 AM,23.0,17.6,80,29.72,8.0,West,15.0,-,0.00,Snow,Light Snow,280,2012-11-11 17:34:00
11:53 AM,23.0,18.0,81,29.76,9.0,West,13.8,-,0.00,,Overcast,270,2012-11-11 17:53:00
12:25 PM,21.2,17.6,86,29.71,1.8,West,13.8,-,0.00,Snow,Light Snow,270,2012-11-11 18:25:00
12:45 PM,21.2,17.6,86,29.72,2.5,West,13.8,-,0.00,Snow,Light Snow,270,2012-11-11 18:45:00
12:53 PM,21.9,17.1,82,29.77,6.0,West,13.8,-,0.00,Snow,Light Snow,270,2012-11-11 18:53:00
1:53 PM,21.9,16.0,78,29.78,10.0,West,12.7,-,0.00,,Overcast,270,2012-11-11 19:53:00
2:53 PM,21.0,15.1,78,29.79,5.0,West,13.8,-,0.00,Snow,Light Snow,270,2012-11-11 20:53:00
3:53 PM,19.9,12.9,74,29.81,9.0,West,16.1,-,0.00,Snow,Light Snow,260,2012-11-11 21:53:00
4:19 PM,19.4,15.8,86,29.75,1.8,West,11.5,-,0.00,Snow,Light Snow,270,2012-11-11 22:19:00
4:53 PM,19.9,14.0,78,29.82,2.0,West,15.0,-,0.00,Snow,Light Snow,270,2012-11-11 22:53:00
5:01 PM,19.4,12.2,74,29.75,6.0,West,16.1,-,0.00,Snow,Light Snow,270,2012-11-11 23:01:00
5:38 PM,19.4,14.0,80,29.76,2.0,West,11.5,-,0.00,Snow,Light Snow,270,2012-11-11 23:38:00
5:53 PM,19.0,15.1,85,29.84,2.5,West,9.2,-,0.00,Snow,Light Snow,280,2012-11-11 23:53:00
6:03 PM,19.4,14.0,80,29.77,1.8,West,12.7,-,0.00,Snow,Light Snow,270,2012-11-12 00:03:00
6:11 PM,19.4,14.0,80,29.77,3.0,West,11.5,-,0.00,Snow,Light Snow,260,2012-11-12 00:11:00
6:26 PM,19.4,15.8,86,29.77,2.5,West,8.1,-,0.00,Snow,Light Snow,270,2012-11-12 00:26:00
6:44 PM,19.4,14.0,80,29.77,5.0,West,11.5,-,0.00,Snow,Light Snow,270,2012-11-12 00:44:00
6:53 PM,19.0,14.0,81,29.85,7.0,West,10.4,-,0.00,Snow,Light Snow,270,2012-11-12 00:53:00
7:53 PM,19.0,14.0,81,29.84,8.0,WSW,9.2,-,0.00,Snow,Light Snow,240,2012-11-12 01:53:00
8:53 PM,18.0,12.9,81,29.84,7.0,WSW,11.5,-,0.00,Snow,Light Snow,240,2012-11-12 02:53:00
9:18 PM,17.6,14.0,86,29.77,2.5,WSW,12.7,-,0.00,Snow,Light Snow,240,2012-11-12 03:18:00
9:28 PM,17.6,14.0,86,29.77,4.0,WSW,11.5,-,0.00,Snow,Light Snow,240,2012-11-12 03:28:00
9:47 PM,17.6,14.0,86,29.77,1.8,WSW,10.4,-,0.00,Snow,Light Snow,250,2012-11-12 03:47:00
9:53 PM,18.0,14.0,84,29.85,2.0,WSW,9.2,-,0.00,Snow,Light Snow,250,2012-11-12 03:53:00
10:26 PM,17.6,12.2,79,29.77,8.0,WSW,10.4,-,0.00,Snow,Light Snow,250,2012-11-12 04:26:00
10:53 PM,18.0,12.9,81,29.85,2.5,WSW,10.4,-,0.00,Snow,Light Snow,240,2012-11-12 04:53:00
11:53 PM,17.1,12.0,81,29.85,3.0,West,15.0,-,0.00,Snow,Light Snow,270,2012-11-12 05:53:00